Weather reports worldwide

Advertisment
Tännäs, Sweden (2308): temperature & dewpoint: 14.10.2019 04:00:00 - 20.10.2019 04:00:00 (CEST)Tännäs, Sweden (2308): wind speed & gusts: 14.10.2019 04:00:00 - 20.10.2019 04:00:00 (CEST)Tännäs, Sweden (2308): wind direction: 14.10.2019 04:00:00 - 20.10.2019 04:00:00 (CEST)Tännäs, Sweden (2308): reduced air pressure: 14.10.2019 04:00:00 - 20.10.2019 04:00:00 (CEST)Tännäs, Sweden (2308): visibility: 14.10.2019 04:00:00 - 20.10.2019 04:00:00 (CEST)Tännäs, Sweden (2308): precipitation: 14.10.2019 04:00:00 - 20.10.2019 04:00:00 (CEST)
Date & Time tt [°C] td [°C] ff [km/h] ff [kn] fx [km/h] fx [kn] dd ppp [hPa] vv [km] rr [mm]
20.10.2019 04:00:00 - - - - - - - - - -
20.10.2019 03:00:00 -1,6 -4,6 4 2 15 8 ESE 1014,3 2,8 0,2
20.10.2019 02:00:00 -1,4 -4,4 5 3 15 8 ESE 1013,7 7 0,2
20.10.2019 01:00:00 -1,1 -3,6 6 3 17 9 ESE 1013,2 1,8 0,0
20.10.2019 00:00:00 -0,5 -3,5 5 3 15 8 ESE 1012,6 38 0,0
19.10.2019 23:00:00 -0,2 -3,1 4 2 13 7 ESE 1011,9 20 0,0
19.10.2019 22:00:00 0,1 -2,6 5 3 14 8 E 1011,0 6 0,0
19.10.2019 21:00:00 0,4 -2,5 3 1 8 5 E 1010,2 13 0,0
19.10.2019 20:00:00 0,7 -2,0 2 1 13 7 NNW 1009,3 9 0,0
19.10.2019 19:00:00 1,2 -1,2 5 3 14 8 ESE 1008,4 4,2 0,0
19.10.2019 18:00:00 1,7 -1,4 0 0 16 8 N 1007,4 18 0,0
19.10.2019 17:00:00 2,0 -0,9 3 2 - - ESE 1006,4 50 0,0
19.10.2019 16:00:00 2,5 -0,3 3 2 11 6 ESE 1005,7 19 0,0
19.10.2019 15:00:00 2,6 -0,2 4 2 15 8 E 1004,8 50 0,1
19.10.2019 14:00:00 2,5 -0,4 3 1 10 6 ENE 1004,3 29 0,1
19.10.2019 13:00:00 2,4 -0,5 3 2 6 3 ESE 1004,1 23 0,1
19.10.2019 12:00:00 2,3 -0,5 2 1 8 4 SW 1003,7 24 0,0
19.10.2019 11:00:00 2,2 -0,6 0 0 8 4 N 1003,4 31 0,0
19.10.2019 10:00:00 1,9 -0,8 0 0 5 3 N 1003,2 50 0,0
19.10.2019 09:00:00 1,5 -1,2 3 1 7 4 WNW 1003,1 50 0,0
19.10.2019 08:00:00 1,2 -1,5 0 0 7 4 N 1003,2 49 0,0
19.10.2019 07:00:00 0,7 -2,0 0 0 8 5 N 1003,4 50 0,0
19.10.2019 06:00:00 1,1 -1,6 2 1 6 4 W 1003,6 50 0,0
19.10.2019 05:00:00 1,4 -1,7 0 0 4 2 N 1003,8 4,2 0,1
19.10.2019 04:00:00 1,5 -1,4 0 0 6 3 N 1004,4 1,7 0,1
19.10.2019 03:00:00 1,8 -0,9 3 1 5 3 ESE 1005,0 3,1 0,0
19.10.2019 02:00:00 2,0 -0,9 2 1 7 4 ESE 1005,0 2,3 -
19.10.2019 01:00:00 2,1 -0,2 4 2 8 4 E 1005,5 8 0,0
19.10.2019 00:00:00 1,9 -0,8 0 0 4 2 N 1006,1 12 0,0
18.10.2019 23:00:00 1,8 -0,6 2 1 7 4 NE 1006,5 29 0,0
18.10.2019 22:00:00 2,0 -0,6 0 0 6 3 N 1006,6 2,2 0,0
18.10.2019 21:00:00 2,1 -0,3 2 1 7 4 NNE 1006,7 - 0,0
18.10.2019 20:00:00 2,0 -0,3 0 0 4 2 N 1007,0 50 0,0
18.10.2019 19:00:00 2,1 -0,2 0 0 3 2 N 1007,1 - 0,0
18.10.2019 18:00:00 2,5 0,1 0 0 4 2 N 1006,8 17 0,0
18.10.2019 17:00:00 3,7 -0,1 0 0 10 6 N 1006,3 16 0,0
18.10.2019 16:00:00 3,9 0,4 3 2 9 5 SW 1006,2 50 0,0
18.10.2019 15:00:00 3,8 0,1 3 2 9 5 SSW 1006,4 50 0,0
18.10.2019 14:00:00 3,5 -0,2 5 3 12 7 SSW 1006,6 50 0,0
18.10.2019 13:00:00 3,5 -0,2 3 2 10 5 SSW 1006,7 50 0,0
18.10.2019 12:00:00 2,8 -0,8 3 2 10 6 SSE 1007,0 50 0,0
18.10.2019 11:00:00 2,2 -0,9 3 1 5 3 SSE 1007,3 50 0,0
18.10.2019 10:00:00 1,6 -1,7 0 0 7 4 N 1007,3 50 0,0
18.10.2019 09:00:00 1,1 -2,0 4 2 - - S 1007,4 50 0,0
18.10.2019 08:00:00 1,0 -1,6 4 2 11 6 ESE 1007,1 50 0,0
18.10.2019 07:00:00 1,0 -1,4 4 2 11 6 SE 1007,3 50 0,0
18.10.2019 06:00:00 1,0 -1,6 4 2 12 7 ESE 1007,6 50 0,0
18.10.2019 05:00:00 0,9 -1,7 4 2 10 6 SE 1007,9 30 0,0
18.10.2019 04:00:00 0,9 -1,7 5 3 14 8 SSE 1008,3 50 0,0
18.10.2019 03:00:00 0,9 -1,5 5 3 12 7 ESE 1008,6 50 0,0
18.10.2019 02:00:00 0,8 -1,8 5 3 13 7 SSE 1008,8 50 0,0
18.10.2019 01:00:00 0,7 -2,0 4 2 17 9 SSE 1009,0 50 0,0
18.10.2019 00:00:00 0,6 -1,8 5 3 14 8 S 1009,5 36 0,0
17.10.2019 23:00:00 0,6 -1,8 5 3 17 9 SE 1009,5 10 0,0
17.10.2019 22:00:00 0,6 -1,8 4 2 13 7 ESE 1009,8 13 0,0
17.10.2019 21:00:00 0,5 -2,2 3 2 14 8 ESE 1009,8 50 0,0
17.10.2019 20:00:00 0,5 -1,6 6 4 13 7 E 1009,9 49 0,0
17.10.2019 19:00:00 0,5 -1,7 5 3 13 7 E 1010,4 14 0,1
17.10.2019 18:00:00 0,5 -1,9 5 3 11 6 E 1010,6 9 0,0
17.10.2019 17:00:00 0,6 -1,6 6 3 13 7 ESE 1010,8 50 0,0
17.10.2019 16:00:00 0,6 -1,5 8 4 14 8 E 1010,9 14 0,0
17.10.2019 15:00:00 0,6 -1,8 7 4 16 8 E 1011,0 11 0,0
17.10.2019 14:00:00 0,6 -2,0 6 3 14 8 ESE 1011,3 37 0,0
17.10.2019 13:00:00 0,5 -2,1 5 3 14 7 ESE 1011,6 14 0,0
17.10.2019 12:00:00 0,3 -2,2 4 2 16 8 ESE 1012,1 1,6 0,0
17.10.2019 11:00:00 0,2 -2,3 5 3 13 7 ESE 1012,0 2,4 0,0
17.10.2019 10:00:00 0,1 -2,4 4 2 12 6 SE 1012,2 2,5 0,0
17.10.2019 09:00:00 -0,1 -2,8 4 2 12 7 ESE 1012,1 - 0,0
17.10.2019 08:00:00 -0,1 -3,1 3 2 7 4 ESE 1011,9 1,5 0,0
17.10.2019 07:00:00 -0,2 -3,1 2 1 10 5 SE 1011,9 3,6 0,0
17.10.2019 06:00:00 -0,1 -3,0 3 2 11 6 ESE 1011,9 11 0,0
17.10.2019 05:00:00 -0,1 -2,8 3 2 11 6 ESE 1012,1 6 0,0
17.10.2019 04:00:00 -0,1 -3,0 3 2 12 7 ESE 1012,2 1,1 0,0
17.10.2019 03:00:00 0,0 -2,7 4 2 15 8 ESE 1012,5 3,8 0,1
17.10.2019 02:00:00 0,0 -2,5 5 3 13 7 E 1012,6 3,0 0,2
17.10.2019 01:00:00 0,1 -2,4 5 3 14 8 ESE 1012,8 4,0 0,3
17.10.2019 00:00:00 0,1 -2,4 4 2 16 9 ESE 1012,7 2,3 0,7
16.10.2019 23:00:00 0,2 -2,3 4 2 13 7 E 1012,8 2,2 0,9
16.10.2019 22:00:00 0,2 -2,3 5 3 15 8 ESE 1012,9 1,5 1,3
16.10.2019 21:00:00 0,2 -2,5 3 2 10 5 ESE 1012,6 1,2 1,0
16.10.2019 20:00:00 0,3 -2,4 3 2 12 6 ESE 1012,6 2,3 0,9
16.10.2019 19:00:00 0,4 -2,0 5 3 15 8 E 1012,6 2,7 1,1
16.10.2019 18:00:00 0,7 -1,7 5 3 15 8 ESE 1012,6 3,7 0,3
16.10.2019 17:00:00 0,8 -1,6 5 3 13 7 E 1012,5 9 0,1
16.10.2019 16:00:00 0,9 -1,7 4 2 14 8 ESE 1012,6 19 0,0
16.10.2019 15:00:00 1,0 -1,4 4 2 14 8 SE 1012,7 9 -
16.10.2019 14:00:00 1,0 -1,4 5 3 13 7 ESE 1013,1 9 0,0
16.10.2019 13:00:00 0,9 -1,5 5 3 15 8 SE 1013,0 - -
16.10.2019 12:00:00 0,7 -1,5 5 3 15 8 SE 1013,6 - 0,1
16.10.2019 11:00:00 0,4 -2,0 4 2 11 6 SE 1014,0 - 0,2
16.10.2019 10:00:00 0,4 -2,0 4 2 13 7 ESE 1013,8 - 0,1
16.10.2019 09:00:00 0,3 -2,2 0 0 10 6 N 1013,9 - 0,1
16.10.2019 08:00:00 0,4 -1,8 4 2 15 8 ESE 1013,6 - 0,0
16.10.2019 07:00:00 0,6 -2,1 4 2 14 8 ESE 1013,5 50 0,0
16.10.2019 06:00:00 0,7 -1,7 5 3 13 7 ESE 1013,6 0,1 0,0
16.10.2019 05:00:00 0,8 -1,8 2 1 12 7 ESE 1013,6 - 0,0
16.10.2019 04:00:00 0,9 -1,5 4 2 13 7 ESE 1013,9 - 0,0
16.10.2019 03:00:00 0,9 -1,3 4 2 16 9 ESE 1014,5 - 0,0
16.10.2019 02:00:00 1,1 -0,7 7 4 18 10 E 1014,4 - 0,0
16.10.2019 01:00:00 1,1 -1,0 6 4 14 8 E 1015,1 - 0,0
16.10.2019 00:00:00 1,1 -1,1 5 3 15 8 E 1015,6 - 0,0
15.10.2019 23:00:00 1,1 -1,0 8 4 16 8 E 1015,7 0,1 0,1
15.10.2019 22:00:00 0,8 -1,3 6 3 15 8 E 1016,2 - 0,1
15.10.2019 21:00:00 1,3 -0,8 8 4 16 9 E 1016,1 - -
15.10.2019 20:00:00 0,9 -2,0 0 0 11 6 N 1016,2 - 0,0
15.10.2019 19:00:00 0,7 -2,2 0 0 10 5 N 1016,0 - 0,0
15.10.2019 18:00:00 0,7 -2,2 0 0 7 4 N 1016,3 0,1 0,0
15.10.2019 17:00:00 0,4 -2,3 3 1 7 4 ENE 1016,5 - 0,0
15.10.2019 16:00:00 0,2 -2,7 0 0 6 3 N 1017,1 - 0,0
15.10.2019 15:00:00 0,2 -3,0 0 0 5 3 N 1017,2 - 0,0
15.10.2019 14:00:00 -0,6 -3,5 0 0 5 3 N 1017,6 0,1 0,0
15.10.2019 13:00:00 -1,6 -4,4 0 0 5 3 N 1018,3 0,1 0,0
15.10.2019 12:00:00 -2,2 -5,0 0 0 6 3 N 1018,6 0,1 0,0
15.10.2019 11:00:00 -3,0 -6,1 0 0 7 4 N 1018,8 0,1 0,0
15.10.2019 10:00:00 -3,5 -6,3 0 0 5 3 N 1019,0 0,1 0,0
15.10.2019 09:00:00 -4,2 -7,3 0 0 4 2 N 1019,0 0,1 0,0
15.10.2019 08:00:00 -4,5 -8,3 3 1 5 3 ESE 1018,7 0,1 0,0
15.10.2019 07:00:00 -4,3 -7,9 0 0 6 4 N 1018,3 0,1 0,0
15.10.2019 06:00:00 -3,3 -5,8 3 2 6 3 E 1018,3 0,1 0,0
15.10.2019 05:00:00 -3,3 -6,4 0 0 4 2 N 1018,4 0,1 0,0
15.10.2019 04:00:00 -2,5 -5,3 3 1 4 2 ESE 1018,3 0,1 0,0
15.10.2019 03:00:00 -2,6 -5,4 0 0 5 3 N 1018,1 0,1 0,0
15.10.2019 02:00:00 -2,4 -5,4 2 1 6 4 E 1018,1 0,1 0,0
15.10.2019 01:00:00 -2,4 -5,1 0 0 6 3 N 1017,9 0,1 0,0
15.10.2019 00:00:00 -1,7 -4,2 5 3 9 5 E 1017,1 0,1 0,0
14.10.2019 23:00:00 -1,6 -4,4 2 1 6 3 SSE 1016,8 0,1 0,0
14.10.2019 22:00:00 -1,2 -4,0 2 1 6 4 ESE 1016,3 0,1 0,0
14.10.2019 21:00:00 -0,8 -3,5 3 1 8 4 E 1015,9 0,1 0,0
14.10.2019 20:00:00 -0,1 -3,3 3 2 8 5 S 1015,2 0,1 0,0
14.10.2019 19:00:00 0,5 -3,1 4 2 9 5 SSE 1014,6 0,1 0,0
14.10.2019 18:00:00 0,5 -3,6 0 0 8 4 N 1013,8 0,1 0,0
14.10.2019 17:00:00 2,7 -2,6 3 2 9 5 SSW 1012,7 0,1 0,0
14.10.2019 16:00:00 3,0 -2,5 4 2 11 6 SSE 1012,0 0,1 0,0
14.10.2019 15:00:00 2,8 -3,8 0 0 7 4 N 1011,7 0,1 0,0
14.10.2019 14:00:00 2,6 -4,2 0 0 6 3 N 1011,3 0,1 0,0
14.10.2019 13:00:00 1,7 -4,0 3 2 6 4 S 1011,1 0,1 0,0
14.10.2019 12:00:00 1,1 -4,3 3 2 7 4 S 1010,7 50 0,0
14.10.2019 11:00:00 0,0 -5,4 0 0 10 6 N 1010,3 50 0,0
14.10.2019 10:00:00 -0,2 -4,8 5 3 11 6 E 1009,4 50 0,0
14.10.2019 09:00:00 -1,8 -6,0 0 0 5 3 N 1009,4 50 0,0
14.10.2019 08:00:00 -2,4 -6,8 0 0 3 1 N 1009,0 50 0,0
14.10.2019 07:00:00 -2,3 -6,3 0 0 2 1 N 1008,6 50 0,0
14.10.2019 06:00:00 -2,3 -5,8 0 0 3 2 N 1008,4 50 0,0
14.10.2019 05:00:00 -2,9 -7,1 0 0 4 2 N 1008,5 50 0,0
14.10.2019 04:00:00 -3,1 -7,1 0 0 2 1 N 1008,9 50 0,0

tt = temperature
td = dewpoint
ff = wind speed
fx = gusts
dd = wind direction
ppp = reduced air pressure
vv = visibility
rr = precipitation

Next stations